Total_Precipitation_Accumulation
0.49 0.34 0.34 0.42 0.40 0.43 0.56 0.60 0.54 0.33 0.24 0.23 0.21 0.21 0.19 0.17 0.14 0.11 0.10 0.11 0.14 0.16 0.16 0.18 0.20 0.21 0.26 0.31 0.33 0.40 0.47 0.48 0.47 0.49 0.52 0.50 0.53 0.58 0.62 0.67 0.70 0.71 0.71 0.74
0.55 0.35 0.32 0.34 0.29 0.30 0.36 0.36 0.33 0.25 0.26 0.24 0.21 0.18 0.15 0.14 0.17 0.16 0.14 0.15 0.15 0.19 0.20 0.21 0.26 0.33 0.38 0.44 0.46 0.49 0.55 0.58 0.55 0.51 0.50 0.53 0.53 0.54 0.57 0.62 0.64 0.64 0.64 0.65
0.78 0.43 0.56 0.59 0.37 0.33 0.34 0.35 0.32 0.32 0.30 0.24 0.20 0.18 0.17 0.16 0.18 0.20 0.18 0.17 0.17 0.19 0.25 0.27 0.32 0.41 0.47 0.49 0.50 0.53 0.55 0.61 0.63 0.56 0.51 0.52 0.52 0.51 0.50 0.51 0.54 0.55 0.56 0.56
1.06 0.79 1.01 0.54 0.26 0.28 0.29 0.31 0.32 0.31 0.29 0.26 0.24 0.21 0.18 0.17 0.18 0.21 0.22 0.23 0.22 0.24 0.26 0.32 0.38 0.44 0.51 0.54 0.56 0.58 0.58 0.56 0.57 0.52 0.46 0.46 0.50 0.48 0.44 0.43 0.47 0.49 0.50 0.49
1.30 1.02 0.60 0.23 0.16 0.25 0.32 0.37 0.35 0.32 0.29 0.26 0.23 0.19 0.19 0.21 0.21 0.22 0.22 0.21 0.21 0.22 0.24 0.29 0.34 0.38 0.41 0.46 0.49 0.51 0.52 0.49 0.48 0.44 0.42 0.46 0.49 0.45 0.41 0.40 0.41 0.44 0.45 0.48
1.42 1.13 0.57 0.23 0.13 0.18 0.30 0.41 0.31 0.29 0.29 0.28 0.28 0.43 0.32 0.26 0.22 0.19 0.17 0.16 0.17 0.18 0.18 0.20 0.25 0.27 0.29 0.32 0.35 0.39 0.41 0.42 0.47 0.43 0.39 0.43 0.48 0.45 0.43 0.41 0.42 0.44 0.46 0.53
1.22 1.07 0.49 0.20 0.13 0.17 0.44 0.55 0.33 0.30 0.31 0.34 0.44 0.51 0.36 0.26 0.23 0.21 0.19 0.17 0.17 0.18 0.21 0.23 0.27 0.28 0.28 0.26 0.28 0.30 0.31 0.34 0.43 0.46 0.43 0.42 0.43 0.44 0.43 0.43 0.44 0.46 0.48 0.52
0.97 1.16 0.63 0.22 0.20 0.38 0.54 0.37 0.31 0.31 0.34 0.41 0.39 0.29 0.25 0.25 0.25 0.22 0.20 0.20 0.21 0.23 0.29 0.32 0.32 0.27 0.24 0.23 0.22 0.23 0.26 0.29 0.34 0.42 0.42 0.41 0.42 0.42 0.41 0.44 0.48 0.49 0.50 0.52
0.73 0.68 0.42 0.30 0.35 0.38 0.36 0.37 0.37 0.44 0.45 0.44 0.40 0.34 0.31 0.28 0.25 0.23 0.22 0.23 0.25 0.25 0.30 0.35 0.31 0.25 0.23 0.22 0.20 0.20 0.23 0.27 0.32 0.37 0.37 0.38 0.40 0.41 0.41 0.43 0.49 0.54 0.55 0.57
0.51 0.40 0.31 0.27 0.24 0.24 0.26 0.33 0.38 0.40 0.43 0.45 0.48 0.42 0.36 0.34 0.33 0.30 0.29 0.28 0.28 0.26 0.29 0.33 0.28 0.23 0.22 0.20 0.19 0.20 0.25 0.30 0.35 0.38 0.40 0.39 0.38 0.38 0.40 0.46 0.60 0.69 0.69 0.67
0.39 0.31 0.27 0.26 0.25 0.25 0.27 0.26 0.26 0.28 0.32 0.43 0.50 0.46 0.38 0.36 0.38 0.39 0.39 0.36 0.34 0.33 0.33 0.32 0.25 0.21 0.22 0.24 0.25 0.27 0.30 0.34 0.39 0.42 0.43 0.43 0.40 0.40 0.45 0.48 0.72 0.98 0.95 0.94
0.36 0.29 0.29 0.29 0.26 0.25 0.28 0.28 0.29 0.30 0.32 0.35 0.38 0.39 0.36 0.37 0.38 0.39 0.40 0.41 0.39 0.34 0.30 0.28 0.24 0.22 0.22 0.25 0.29 0.31 0.32 0.35 0.40 0.46 0.48 0.47 0.45 0.45 0.47 0.50 0.59 0.68 0.74 0.88
0.29 0.25 0.23 0.24 0.22 0.22 0.25 0.28 0.31 0.33 0.32 0.29 0.29 0.30 0.35 0.40 0.39 0.38 0.39 0.39 0.36 0.32 0.30 0.29 0.27 0.25 0.25 0.28 0.32 0.34 0.36 0.39 0.42 0.44 0.47 0.49 0.51 0.51 0.51 0.48 0.49 0.53 0.58 0.66
0.21 0.21 0.23 0.20 0.20 0.20 0.21 0.24 0.26 0.29 0.28 0.24 0.24 0.25 0.30 0.35 0.34 0.31 0.32 0.31 0.30 0.29 0.28 0.27 0.26 0.26 0.27 0.28 0.32 0.36 0.38 0.42 0.46 0.47 0.49 0.50 0.52 0.54 0.54 0.53 0.54 0.54 0.53 0.57
0.17 0.20 0.24 0.20 0.18 0.18 0.19 0.20 0.22 0.23 0.22 0.22 0.21 0.22 0.25 0.29 0.32 0.33 0.30 0.26 0.24 0.24 0.26 0.25 0.25 0.26 0.26 0.27 0.29 0.32 0.35 0.38 0.42 0.46 0.48 0.50 0.53 0.55 0.55 0.54 0.55 0.56 0.56 0.59
0.19 0.20 0.20 0.20 0.22 0.23 0.22 0.21 0.22 0.23 0.21 0.21 0.21 0.22 0.23 0.24 0.25 0.26 0.25 0.23 0.22 0.24 0.26 0.26 0.26 0.27 0.26 0.28 0.30 0.31 0.33 0.40 0.46 0.47 0.49 0.50 0.53 0.56 0.58 0.60 0.59 0.58 0.61 0.66
0.23 0.22 0.23 0.26 0.27 0.28 0.30 0.29 0.26 0.23 0.19 0.17 0.18 0.18 0.18 0.19 0.19 0.20 0.22 0.23 0.23 0.24 0.25 0.26 0.28 0.26 0.26 0.27 0.33 0.35 0.37 0.41 0.47 0.47 0.49 0.52 0.56 0.61 0.63 0.67 0.68 0.65 0.62 0.66
0.27 0.29 0.32 0.35 0.35 0.33 0.32 0.28 0.25 0.22 0.19 0.18 0.17 0.18 0.18 0.18 0.20 0.20 0.21 0.22 0.22 0.22 0.23 0.25 0.27 0.24 0.23 0.27 0.37 0.39 0.42 0.46 0.49 0.50 0.51 0.55 0.61 0.63 0.65 0.68 0.68 0.66 0.62 0.61
0.25 0.28 0.30 0.32 0.34 0.34 0.33 0.29 0.26 0.25 0.24 0.22 0.21 0.22 0.23 0.23 0.23 0.24 0.23 0.22 0.22 0.23 0.24 0.23 0.25 0.22 0.23 0.29 0.41 0.45 0.49 0.52 0.52 0.51 0.53 0.60 0.61 0.57 0.60 0.64 0.66 0.63 0.61 0.61
0.27 0.27 0.29 0.31 0.31 0.31 0.30 0.27 0.24 0.24 0.26 0.26 0.26 0.26 0.27 0.27 0.27 0.27 0.26 0.26 0.27 0.30 0.26 0.25 0.25 0.25 0.29 0.36 0.48 0.52 0.55 0.57 0.58 0.56 0.57 0.58 0.58 0.58 0.59 0.61 0.64 0.65 0.64 0.64
0.31 0.30 0.30 0.29 0.28 0.27 0.26 0.24 0.23 0.23 0.25 0.25 0.26 0.28 0.29 0.29 0.29 0.28 0.27 0.28 0.29 0.29 0.27 0.28 0.29 0.38 0.46 0.53 0.57 0.56 0.56 0.58 0.60 0.61 0.62 0.63 0.63 0.60 0.59 0.62 0.64 0.66 0.66 0.66
0.31 0.31 0.32 0.30 0.27 0.26 0.26 0.25 0.24 0.24 0.24 0.25 0.26 0.28 0.30 0.30 0.29 0.29 0.30 0.32 0.35 0.37 0.33 0.31 0.40 0.58 0.63 0.64 0.57 0.56 0.55 0.54 0.56 0.59 0.63 0.66 0.70 0.69 0.66 0.66 0.70 0.69 0.68 0.70
0.31 0.32 0.33 0.31 0.29 0.28 0.28 0.27 0.27 0.26 0.27 0.28 0.29 0.30 0.32 0.34 0.33 0.35 0.41 0.40 0.38 0.41 0.38 0.38 0.51 0.61 0.63 0.58 0.54 0.54 0.54 0.56 0.57 0.60 0.64 0.69 0.72 0.75 0.77 0.76 0.74 0.75 0.77 0.77
0.35 0.36 0.36 0.34 0.30 0.27 0.29 0.31 0.29 0.29 0.30 0.31 0.33 0.34 0.34 0.36 0.37 0.38 0.43 0.44 0.41 0.41 0.39 0.44 0.51 0.54 0.53 0.51 0.52 0.54 0.56 0.61 0.66 0.68 0.68 0.71 0.73 0.75 0.79 0.81 0.81 0.78 0.78 0.79
0.40 0.40 0.37 0.34 0.31 0.32 0.34 0.33 0.31 0.31 0.30 0.32 0.35 0.36 0.35 0.36 0.41 0.43 0.41 0.41 0.41 0.41 0.41 0.43 0.46 0.48 0.46 0.48 0.52 0.56 0.61 0.68 0.75 0.79 0.79 0.77 0.75 0.76 0.78 0.81 0.85 0.86 0.83 0.82
0.45 0.44 0.41 0.38 0.36 0.35 0.35 0.34 0.35 0.36 0.33 0.34 0.35 0.35 0.35 0.35 0.36 0.38 0.40 0.41 0.41 0.41 0.41 0.42 0.42 0.45 0.47 0.50 0.53 0.57 0.63 0.68 0.70 0.70 0.69 0.71 0.71 0.74 0.77 0.80 0.84 0.86 0.86 0.84
0.44 0.41 0.37 0.34 0.33 0.33 0.33 0.33 0.35 0.37 0.36 0.35 0.36 0.35 0.32 0.31 0.32 0.34 0.36 0.39 0.41 0.41 0.42 0.44 0.45 0.48 0.50 0.51 0.53 0.57 0.61 0.64 0.68 0.71 0.70 0.71 0.71 0.74 0.76 0.81 0.84 0.84 0.84 0.84